Weather History for KDTS - February, 2013

Change the Weather History Date:

Saturday, February 9, 2013

  Actual Average Record
Temperature  
Mean Temperature 54 °F -  
Max Temperature 60 °F 59 °F 73 °F (1999)
Min Temperature 48 °F 45 °F 39 °F (1998)
Degree Days  
Heating Degree Days 11    
Growing Degree Days 4 (Base 50)    
Moisture  
Dew Point 47 °F    
Average Humidity 76    
Maximum Humidity 94    
Minimum Humidity 51    
Precipitation  
Precipitation 0.00 in - - ()
Sea Level Pressure  
Sea Level Pressure 30.19 in    
Wind  
Wind Speed 6 mph (NE)    
Max Wind Speed 9 mph    
Max Gust Speed 16 mph    
Visibility 9 miles    
Events      
Averages and records for this station are not official NWS values.
T = Trace of Precipitation, MM = Missing Value Source: NWS Daily Summary

Daily Weather History Graph

Daily Weather History Graph

Search for Another Location

Airport or City:

Trip Planner

Search our weather history database for the weather conditions in past years. The results will help you decide how hot, cold, wet, or windy it might be!

Date:

Astronomy

Feb. 09, 2013 Rise Set
Actual Time 6:31 AM CST 5:29 PM CST
Civil Twilight 6:06 AM CST 5:54 PM CST
Nautical Twilight 5:37 AM CST 6:22 PM CST
Astronomical Twilight 5:09 AM CST 6:50 PM CST
Moon 5:43 AM CST (2/9) 5:09 PM CST (2/9)
Length of Visible Light 11h 48m
Length of Day
10h 58m
Waning Crescent, 0% of the Moon is Illuminated
Feb 9
Waning Crescent
Feb 10
New
Feb 17
First Quarter
Feb 25
Full
Mar 4
Last Quarter

Hourly Weather History & Observations

Time (CST) Temp. Dew Point Humidity Pressure Visibility Wind Dir Wind Speed Gust Speed Precip Events Conditions
12:53 AM 55.9 °F 48.9 °F 77% 30.15 in 10.0 mi North 9.2 mph - N/A   Clear
1:28 AM 55.4 °F 48.2 °F 77% 30.16 in 10.0 mi NNE 5.8 mph - N/A   Mostly Cloudy
1:53 AM 55.9 °F 48.9 °F 77% 30.16 in 10.0 mi Variable 5.8 mph - N/A   Overcast
2:32 AM 55.4 °F 48.2 °F 77% 30.18 in 10.0 mi NE 4.6 mph - N/A   Scattered Clouds
2:41 AM 55.4 °F 48.2 °F 77% 30.18 in 10.0 mi NNE 8.1 mph - N/A   Mostly Cloudy
2:49 AM 55.4 °F 48.2 °F 77% 30.17 in 10.0 mi NNE 5.8 mph - N/A   Scattered Clouds
2:53 AM 55.0 °F 48.0 °F 77% 30.17 in 10.0 mi NNE 5.8 mph - N/A   Mostly Cloudy
3:53 AM 54.0 °F 46.9 °F 77% 30.19 in 10.0 mi NNE 8.1 mph - N/A   Overcast
4:40 AM 51.8 °F 44.6 °F 76% 30.19 in 10.0 mi North 6.9 mph 16.1 mph N/A   Scattered Clouds
4:53 AM 51.1 °F 45.0 °F 80% 30.19 in 10.0 mi NNE 9.2 mph - N/A   Clear
5:53 AM 48.9 °F 44.1 °F 83% 30.19 in 10.0 mi NNE 8.1 mph - N/A   Clear
6:53 AM 48.0 °F 43.0 °F 83% 30.23 in 10.0 mi NNE 6.9 mph - N/A   Clear
7:53 AM 48.9 °F 42.1 °F 77% 30.24 in 10.0 mi NE 5.8 mph - N/A   Clear
8:53 AM 51.1 °F 41.0 °F 68% 30.26 in 10.0 mi NE 8.1 mph - N/A   Clear
9:53 AM 54.0 °F 42.1 °F 64% 30.25 in 10.0 mi ENE 6.9 mph - N/A   Clear
10:53 AM 57.0 °F 39.0 °F 51% 30.25 in 10.0 mi East 4.6 mph - N/A   Clear
11:53 AM 57.9 °F 42.1 °F 56% 30.23 in 10.0 mi SSE 4.6 mph - N/A   Clear
12:53 PM 60.1 °F 43.0 °F 53% 30.21 in 10.0 mi South 3.5 mph - N/A   Clear
1:53 PM 59.0 °F 44.1 °F 58% 30.19 in 10.0 mi Variable 5.8 mph - N/A   Clear
2:53 PM 60.1 °F 48.0 °F 64% 30.19 in 10.0 mi Variable 5.8 mph - N/A   Clear
3:53 PM 60.1 °F 48.9 °F 67% 30.18 in 10.0 mi SSE 5.8 mph - N/A   Clear
4:53 PM 59.0 °F 48.9 °F 69% 30.18 in 10.0 mi SE 3.5 mph - N/A   Clear
5:53 PM 57.0 °F 50.0 °F 77% 30.17 in 8.0 mi SE 3.5 mph - N/A   Clear
6:53 PM 54.0 °F 50.0 °F 86% 30.17 in 10.0 mi Calm Calm - N/A   Clear
7:53 PM 54.0 °F 50.0 °F 86% 30.18 in 10.0 mi Calm Calm - N/A   Clear
8:53 PM 53.1 °F 48.9 °F 86% 30.18 in 10.0 mi Calm Calm - N/A   Clear
9:53 PM 54.0 °F 51.1 °F 90% 30.18 in 10.0 mi Calm Calm - N/A   Clear
10:53 PM 55.0 °F 51.1 °F 86% 30.17 in 10.0 mi Calm Calm - N/A   Clear
11:26 PM 51.8 °F 50.0 °F 94% 30.16 in 0.8 mi Calm Calm - N/A   Clear
11:46 PM 53.6 °F 51.8 °F 94% 30.16 in 2.0 mi Calm Calm - N/A   Clear
11:53 PM 53.1 °F 51.1 °F 93% 30.16 in 10.0 mi Calm Calm - N/A   Clear